W8WAK Weather Reports


time (UTC)temp
C
wind
direction
speed
KPH
gust
KPH
rain 1hr
cm
rain 24hr
cm
rain mn
cm
humidity
%
barometer
mb
20260502130504 5 259 4.8 4.8 0.00 0.00 0.00 67 1004.5
20260502123005 3 247 1.6 3.2 0.00 0.00 0.00 75 1004.6
20260502122505 3 297 1.6 1.6 0.00 0.00 0.00 74 1004.7
20260502122004 3 254 1.6 1.6 0.00 0.00 0.00 75 1004.4
20260502121504 3 248 3.2 4.8 0.00 0.00 0.00 75 1004.5
20260502121005 3 299 3.2 3.2 0.00 0.00 0.00 75 1004.3
20260502115004 3 182 0.0 0.0 0.00 0.00 0.00 77 1004.3
20260502114505 3 187 1.6 1.6 0.00 0.00 0.00 77 1004.4
20260502114005 3 198 1.6 1.6 0.00 0.00 0.00 77 1004.3
20260502113004 3 172 0.0 0.0 0.00 0.00 0.00 78 1004.2
20260502112505 3 171 0.0 0.0 0.00 0.00 0.00 79 1004.2
20260502112005 2 171 0.0 0.0 0.00 0.00 0.00 79 1004.2
20260502111504 2 171 0.0 0.0 0.00 0.00 0.00 80 1004.2
20260502111004 2 171 0.0 0.0 0.00 0.00 0.00 80 1004.1
20260502110505 2 171 0.0 0.0 0.00 0.00 0.00 80 1004.0
20260502110005 2 171 0.0 0.0 0.00 0.00 0.00 80 1004.1
20260502105504 2 171 0.0 0.0 0.00 0.00 0.00 80 1004.0
20260502105005 2 171 0.0 0.0 0.00 0.00 0.00 80 1003.9
20260502104004 2 171 0.0 0.0 0.00 0.00 0.00 80 1004.0
20260502103504 2 171 0.0 0.0 0.00 0.00 0.00 79 1003.9
20260502102505 2 171 0.0 0.0 0.00 0.00 0.00 80 1003.8
20260502102004 2 171 0.0 0.0 0.00 0.00 0.00 80 1003.8
20260502101504 2 170 0.0 0.0 0.00 0.00 0.00 80 1003.9
20260502101004 2 170 0.0 0.0 0.00 0.00 0.00 80 1003.8
20260502100505 2 170 0.0 0.0 0.00 0.00 0.00 80 1003.8
20260502091504 2 111 0.0 0.0 0.00 0.00 0.00 78 1003.8
20260502091005 2 126 0.0 0.0 0.00 0.00 0.00 78 1003.8
20260502090505 2 127 0.0 0.0 0.00 0.00 0.00 78 1003.7
20260502071504 3 81 0.0 1.6 0.00 0.00 0.00 78 1003.5
20260502071004 3 339 1.6 1.6 0.00 0.00 0.00 78 1003.5
20260502070505 3 244 1.6 3.2 0.00 0.00 0.00 78 1003.6
20260502070005 3 275 3.2 4.8 0.00 0.00 0.00 78 1003.2
20260502065504 3 284 3.2 3.2 0.00 0.00 0.00 78 1003.5
20260502065004 3 24 3.2 3.2 0.00 0.00 0.00 78 1003.4
20260502064505 3 123 0.0 0.0 0.00 0.00 0.00 78 1003.3
20260502063504 3 116 0.0 0.0 0.00 0.00 0.00 78 1003.7
20260502063004 3 91 1.6 1.6 0.00 0.00 0.00 78 1003.5
20260502062505 3 115 0.0 0.0 0.00 0.00 0.00 78 1003.6
20260502062005 3 112 1.6 1.6 0.00 0.00 0.00 77 1003.9
20260502060505 3 124 0.0 0.0 0.00 0.00 0.00 76 1003.9
20260502060004 3 82 0.0 0.0 0.00 0.00 0.00 75 1004.0
20260502055004 3 118 1.6 1.6 0.00 0.00 0.00 74 1004.1
20260502054505 3 122 3.2 4.8 0.00 0.00 0.00 74 1003.8
20260502054005 3 110 0.0 0.0 0.00 0.00 0.00 73 1004.0
20260502053504 3 123 0.0 0.0 0.00 0.00 0.00 73 1003.8
20260502053004 3 101 3.2 3.2 0.00 0.00 0.00 73 1003.6
20260502052504 3 109 0.0 0.0 0.00 0.00 0.00 73 1003.9
20260502051504 3 106 0.0 0.0 0.00 0.00 0.00 72 1003.8
20260502051005 3 94 0.0 0.0 0.00 0.00 0.00 72 1004.0
20260502050504 3 101 0.0 0.0 0.00 0.00 0.00 72 1003.7
20260502050005 3 127 0.0 0.0 0.00 0.00 0.00 72 1003.8
20260502045505 3 136 0.0 0.0 0.00 0.00 0.00 73 1003.9
20260502045006 3 128 0.0 0.0 0.00 0.00 0.00 73 1003.5
20260502044505 3 120 1.6 1.6 0.00 0.00 0.00 73 1003.6
20260502043504 3 122 0.0 0.0 0.00 0.00 0.00 75 1003.4
20260502042505 3 123 1.6 1.6 0.00 0.00 0.00 75 1003.5
20260502042004 3 128 0.0 0.0 0.00 0.00 0.00 76 1003.5
20260502041005 3 115 1.6 3.2 0.00 0.00 0.00 76 1003.4
20260502040505 3 117 1.6 1.6 0.00 0.00 0.00 76 1003.6
20260502035004 3 111 1.6 3.2 0.00 0.00 0.00 76 1003.5
20260502034004 3 136 0.0 0.0 0.00 0.00 0.00 77 1003.6
20260502033005 3 88 4.8 8.0 0.00 0.00 0.00 77 1003.4
20260502032504 4 133 1.6 4.8 0.00 0.00 0.00 77 1003.6
20260502032004 5 108 0.0 0.0 0.00 0.00 0.00 77 1003.3
20260502031505 5 138 1.6 3.2 0.00 0.00 0.00 75 1003.2
20260502031004 5 119 0.0 0.0 0.00 0.00 0.00 75 1003.1
20260502030504 5 83 0.0 1.6 0.00 0.00 0.00 75 1002.9
20260502030005 5 127 0.0 0.0 0.00 0.00 0.00 76 1003.0
20260502025504 5 127 0.0 0.0 0.00 0.00 0.00 76 1003.1
20260502025004 5 126 3.2 3.2 0.00 0.00 0.00 76 1003.1
20260502024505 5 118 1.6 1.6 0.00 0.00 0.00 77 1003.1
20260502024005 5 123 1.6 1.6 0.00 0.00 0.00 78 1002.9
20260502023504 5 130 1.6 1.6 0.00 0.00 0.00 78 1003.1
20260502023005 5 115 1.6 1.6 0.00 0.00 0.00 78 1002.9
20260502022505 5 105 1.6 1.6 0.00 0.00 0.00 79 1003.0
20260502022004 5 69 1.6 3.2 0.00 0.00 0.00 79 1002.7
20260502021004 5 93 3.2 3.2 0.00 0.00 0.00 78 1002.9
20260502020005 5 119 0.0 1.6 0.00 0.00 0.00 78 1002.7
20260502015004 5 72 1.6 3.2 0.00 0.00 0.00 81 1002.4
20260502014505 5 158 1.6 1.6 0.00 0.00 0.00 81 1002.5
20260502014004 5 129 0.0 1.6 0.00 0.00 0.00 81 1002.6
20260502013504 5 118 0.0 1.6 0.00 0.00 0.00 82 1002.3
20260502013004 5 122 0.0 0.0 0.00 0.00 0.00 81 1002.3
20260502012505 5 115 0.0 1.6 0.00 0.00 0.00 81 1002.5
20260502012004 6 112 1.6 1.6 0.00 0.00 0.00 80 1002.3
20260502011504 6 124 1.6 1.6 0.00 0.00 0.00 80 1002.3
20260502011004 6 101 1.6 1.6 0.00 0.00 0.00 78 1002.3
20260502010504 6 123 0.0 1.6 0.00 0.00 0.00 77 1002.1
20260502005004 6 109 1.6 3.2 0.00 0.00 0.00 77 1002.2
20260502004005 6 122 0.0 0.0 0.00 0.00 0.00 77 1002.0
20260502003505 6 111 0.0 0.0 0.00 0.00 0.00 77 1001.9
20260502002504 6 111 1.6 1.6 0.00 0.00 0.00 76 1001.8
20260502002004 6 124 1.6 1.6 0.00 0.00 0.00 76 1001.8
20260502001505 6 129 0.0 1.6 0.00 0.00 0.00 76 1001.9
20260502001005 6 121 0.0 1.6 0.00 0.00 0.00 75 1001.8
20260502000504 6 134 1.6 1.6 0.00 0.00 0.00 75 1001.8
20260501235505 7 132 1.6 3.2 0.00 0.00 0.00 73 1001.6
20260501235005 7 128 3.2 3.2 0.00 0.00 0.00 73 1001.7
20260501234504 7 132 1.6 1.6 0.00 0.00 0.00 73 1001.6
20260501233504 7 130 3.2 3.2 0.00 0.00 0.00 70 1001.6
20260501233004 7 93 3.2 3.2 0.00 0.00 0.00 69 1001.5
20260501232505 7 124 0.0 0.0 0.00 0.00 0.00 69 1001.4
20260501232004 7 106 0.0 0.0 0.00 0.00 0.00 68 1001.6
20260501231004 8 162 1.6 1.6 0.00 0.00 0.00 64 1001.2
20260501230505 8 132 0.0 1.6 0.00 0.00 0.00 66 1001.2
20260501230005 8 132 0.0 0.0 0.00 0.00 0.00 65 1001.1
20260501225504 8 133 0.0 0.0 0.00 0.00 0.00 64 1001.1
20260501225004 8 135 0.0 1.6 0.00 0.00 0.00 65 1001.1
20260501224005 8 128 0.0 1.6 0.00 0.00 0.00 63 1001.0
20260501223505 9 142 1.6 1.6 0.00 0.00 0.00 59 1001.1
20260501223005 9 99 0.0 0.0 0.00 0.00 0.00 53 1001.1
20260501222504 9 170 1.6 1.6 0.00 0.00 0.00 53 1001.0
20260501222005 8 261 4.8 4.8 0.00 0.00 0.00 53 1001.2
20260501221505 8 271 3.2 3.2 0.00 0.00 0.00 53 1001.0
20260501215505 8 253 0.0 0.0 0.00 0.00 0.00 55 1000.9
20260501214504 9 101 0.0 1.6 0.00 0.00 0.00 55 1000.8
20260501214004 9 61 1.6 1.6 0.00 0.00 0.00 55 1000.6
20260501213004 9 226 1.6 1.6 0.00 0.00 0.00 51 1000.7
20260501212505 9 45 3.2 3.2 0.00 0.00 0.00 50 1000.8
20260501212004 9 237 3.2 3.2 0.00 0.00 0.00 50 1000.7
20260501211504 9 265 3.2 4.8 0.00 0.00 0.00 49 1000.6
20260501211005 9 274 3.2 3.2 0.00 0.00 0.00 50 1000.5
20260501210505 9 324 3.2 3.2 0.00 0.00 0.00 49 1000.6
20260501210004 9 279 3.2 4.8 0.00 0.00 0.00 48 1000.6
20260501205005 10 325 3.2 4.8 0.00 0.00 0.00 48 1000.5
20260501204505 10 157 3.2 8.0 0.00 0.00 0.00 49 1000.4
20260501204004 10 276 1.6 1.6 0.00 0.00 0.00 48 1000.3
20260501203005 10 170 1.6 1.6 0.00 0.00 0.00 50 1000.5
20260501202505 10 215 1.6 1.6 0.00 0.00 0.00 49 1000.4
20260501202004 10 17 1.6 3.2 0.00 0.00 0.00 49 1000.4
20260501201504 10 49 3.2 3.2 0.00 0.00 0.00 50 1000.6
20260501201005 10 88 1.6 1.6 0.00 0.00 0.00 50 1000.7
20260501200504 10 143 1.6 1.6 0.00 0.00 0.00 51 1000.7
20260501200005 10 90 1.6 3.2 0.00 0.00 0.00 51 1000.5
20260501195505 10 93 4.8 4.8 0.00 0.00 0.00 51 1000.7
20260501195004 10 150 1.6 1.6 0.00 0.00 0.00 52 1000.6
20260501194005 9 110 0.0 0.0 0.00 0.00 0.00 54 1000.6
20260501193504 8 12 4.8 4.8 0.00 0.00 0.00 56 1000.6
20260501193004 8 254 4.8 4.8 0.00 0.00 0.00 56 1000.3
20260501192004 9 127 0.0 0.0 0.00 0.00 0.00 66 1000.5
20260501191004 9 127 0.0 0.0 0.00 0.00 0.00 65 1000.6
20260501190505 10 125 1.6 1.6 0.00 0.00 0.00 65 1000.2
20260501190005 10 132 1.6 3.2 0.00 0.00 0.00 64 1000.5
20260501185005 10 134 0.0 0.0 0.00 0.00 0.00 63 1000.5
20260501184505 10 247 0.0 1.6 0.00 0.00 0.00 58 1000.6
20260501184004 9 234 1.6 3.2 0.00 0.00 0.00 57 1000.4
20260501183505 8 94 0.0 1.6 0.00 0.00 0.00 58 1000.2
20260501182005 9 134 1.6 1.6 0.00 0.00 0.00 57 1000.3
20260501181504 9 122 1.6 1.6 0.00 0.00 0.00 58 1000.1
20260501181004 10 131 1.6 1.6 0.00 0.00 0.00 56 1000.2
20260501180505 9 122 0.0 1.6 0.00 0.00 0.00 57 1000.4
20260501175504 9 122 0.0 0.0 0.00 0.00 0.00 62 1000.1
20260501174004 8 75 0.0 1.6 0.00 0.00 0.00 61 1000.2
20260501173505 8 117 1.6 1.6 0.00 0.00 0.00 63 1000.0
20260501173004 8 110 1.6 1.6 0.00 0.00 0.00 62 1000.1
20260501172504 8 32 1.6 1.6 0.00 0.00 0.00 62 1000.0
20260501172005 8 65 0.0 1.6 0.00 0.00 0.00 64 1000.0
20260501171504 8 250 3.2 3.2 0.00 0.00 0.00 64 1000.0
20260501171004 8 353 8.0 12.9 0.00 0.00 0.00 63 1000.0
20260501170504 8 251 0.0 0.0 0.00 0.00 0.00 63 1000.1
20260501170005 8 114 0.0 1.6 0.00 0.00 0.00 63 1000.1
20260501165005 9 155 0.0 0.0 0.00 0.00 0.00 61 1000.1
20260501164505 8 107 0.0 0.0 0.00 0.00 0.00 64 1000.2
20260501164005 8 15 4.8 4.8 0.00 0.00 0.00 64 1000.1
20260501163004 8 207 0.0 0.0 0.00 0.00 0.00 66 1000.2
20260501162505 8 248 1.6 3.2 0.00 0.00 0.00 66 1000.0
20260501162005 8 358 3.2 3.2 0.00 0.00 0.00 65 1000.1
20260501161504 9 96 1.6 1.6 0.00 0.00 0.00 66 1000.1
20260501161004 9 18 4.8 9.7 0.00 0.00 0.00 66 1000.1
20260501160505 8 69 1.6 3.2 0.00 0.00 0.00 67 1000.1
20260501160005 8 126 0.0 1.6 0.00 0.00 0.00 71 1000.2
20260501155504 8 294 1.6 3.2 0.00 0.00 0.00 69 1000.4
20260501155004 8 354 1.6 1.6 0.00 0.00 0.00 71 1000.2
20260501154505 8 59 3.2 3.2 0.00 0.00 0.00 71 1000.4
20260501154004 7 65 3.2 4.8 0.00 0.00 0.00 72 1000.5
20260501153504 8 325 3.2 3.2 0.00 0.00 0.00 72 1000.4
20260501153005 8 90 1.6 1.6 0.00 0.00 0.00 72 1000.6
20260501152505 8 56 0.0 1.6 0.00 0.00 0.00 72 1000.2
20260501152004 8 86 3.2 3.2 0.00 0.00 0.00 72 1000.2
20260501151504 8 134 0.0 1.6 0.00 0.00 0.00 74 1000.2
20260501151005 7 113 0.0 1.6 0.00 0.00 0.00 74 1000.3
20260501150505 7 97 1.6 1.6 0.00 0.00 0.00 76 1000.3
20260501145504 7 96 1.6 1.6 0.00 0.00 0.00 77 1000.2
20260501145005 7 174 0.0 0.0 0.00 0.00 0.00 77 1000.6
20260501144505 7 20 1.6 3.2 0.00 0.00 0.00 78 1000.4
20260501144004 7 3 3.2 4.8 0.00 0.00 0.00 79 1000.4
20260501143504 7 44 3.2 3.2 0.00 0.00 0.00 79 1000.1
20260501143004 7 76 1.6 1.6 0.00 0.00 0.00 80 1000.4
20260501142520 7 124 1.6 1.6 0.00 0.00 0.00 82 1000.2
20260501142004 6 35 3.2 3.2 0.00 0.00 0.00 82 1000.0